period_start,C,m1,H,J0,J1,J2,J3,J4,J5,JA,JB,JC,JD,JJ,JK,JN,#
2016-03-30 00:01:58,0.16,1.17,0.00,10.80,15.77,20.32,15.44,49.86,1021.28,2078.96,3115.41,2885.44,3272.55,600.09,624.59,7.20,0000 0000 0000 0000 000000
2016-03-30 00:07:00,0.15,1.18,0.00,10.87,15.79,20.33,15.42,49.92,1021.28,2078.87,3112.18,2883.23,3270.07,600.18,624.53,7.25,0000 0000 0000 0000 000000
2016-03-30 00:12:01,0.11,1.19,0.00,10.88,15.83,20.36,15.43,49.95,1021.22,2078.46,3108.98,2881.02,3267.63,600.12,624.45,7.30,0000 0000 0000 0000 000000
2016-03-30 00:17:02,0.13,1.19,0.00,10.90,15.86,20.35,15.40,50.04,1021.27,2078.18,3105.85,2879.00,3265.17,600.03,624.43,7.35,0000 0000 0000 0000 000000
2016-03-30 00:22:03,0.14,1.20,0.00,10.92,15.90,20.41,15.49,50.02,1021.34,2078.01,3102.77,2876.88,3262.82,600.24,624.47,7.40,0000 0000 0000 0000 000000
2016-03-30 00:27:05,0.14,1.21,0.00,10.96,15.94,20.46,15.39,50.00,1021.23,2078.01,3099.84,2874.86,3260.57,600.02,624.17,7.45,0000 0000 0000 0000 000000
2016-03-30 00:32:06,0.14,1.21,0.00,11.00,15.99,20.46,15.39,50.07,1021.14,2078.00,3097.18,2872.84,3258.26,600.33,624.25,7.50,0000 0000 0000 0000 000000
2016-03-30 00:37:07,0.14,1.22,0.00,11.00,16.03,20.50,15.39,50.04,1021.14,2077.98,3094.42,2870.82,3255.86,600.19,624.22,7.55,0000 0000 0000 0000 000000
2016-03-30 00:42:08,0.14,1.23,0.00,11.01,16.08,20.54,15.39,50.20,1021.16,2077.90,3091.32,2868.61,3253.35,599.92,623.87,7.60,0000 0000 0000 0000 000000
2016-03-30 00:47:10,0.13,1.24,0.00,11.03,16.12,20.57,15.35,50.09,1021.16,2077.67,3088.26,2866.44,3250.91,599.87,623.77,7.65,0000 0000 0000 0000 000000
2016-03-30 00:52:11,0.10,1.24,0.00,11.06,16.16,20.60,15.40,50.05,1021.25,2077.09,3085.21,2864.32,3248.42,600.31,624.15,7.70,0000 0000 0000 0000 000000
2016-03-30 00:57:12,0.16,1.25,0.00,11.11,16.20,20.65,15.39,50.23,1021.38,2077.01,3082.21,2862.20,3245.95,599.96,623.91,7.75,0000 0000 0000 0000 000000
2016-03-30 01:02:13,0.15,1.26,0.00,11.13,16.24,20.69,15.36,50.08,1021.40,2077.00,3079.28,2860.07,3243.52,600.01,623.87,7.80,0000 0000 0000 0000 000000
2016-03-30 01:07:15,0.15,1.26,0.00,11.12,16.28,20.69,15.46,50.07,1021.43,2076.99,3076.42,2857.99,3241.10,600.23,624.01,7.85,0000 0000 0000 0000 000000
2016-03-30 01:12:16,0.14,1.27,0.00,11.14,16.32,20.80,15.38,50.02,1021.43,2076.97,3073.51,2855.96,3238.70,599.88,623.67,7.90,0000 0000 0000 0000 000000
2016-03-30 01:17:17,0.13,1.28,0.00,11.21,16.36,20.80,15.36,50.05,1021.44,2076.78,3070.70,2853.86,3236.36,599.82,623.52,7.95,0000 0000 0000 0000 000000
2016-03-30 01:22:18,0.11,1.28,0.00,11.22,16.40,20.81,15.42,50.17,1021.47,2076.20,3067.52,2851.66,3233.95,600.15,623.86,8.00,0000 0000 0000 0000 000000
2016-03-30 01:27:20,0.15,1.29,0.00,11.24,16.44,20.86,15.40,50.17,1021.50,2076.04,3064.26,2849.53,3231.56,600.24,623.89,8.05,0000 0000 0000 0000 000000
2016-03-30 01:32:21,0.15,1.30,0.00,11.27,16.48,20.83,15.39,50.21,1021.50,2076.01,3061.37,2847.49,3229.23,600.00,623.63,8.10,0000 0000 0000 0000 000000
2016-03-30 01:37:22,0.15,1.31,0.00,11.29,16.52,20.86,15.37,50.12,1021.50,2076.00,3058.52,2845.34,3226.80,600.25,623.78,8.15,0000 0000 0000 0000 000000
2016-03-30 01:42:24,0.15,1.32,0.00,11.33,16.56,20.91,15.30,50.06,1021.50,2075.99,3055.58,2843.31,3224.38,599.73,623.22,8.20,0000 0000 0000 0000 000000
2016-03-30 01:47:25,0.15,1.32,0.00,11.40,16.61,20.95,15.37,50.13,1021.50,2075.96,3052.52,2841.17,3222.01,599.89,623.27,8.25,0000 0000 0000 0000 000000
2016-03-30 01:52:27,0.14,1.33,0.00,11.44,16.65,20.97,15.34,50.05,1021.50,2075.86,3049.66,2839.12,3219.61,600.02,623.23,8.30,0000 0000 0000 0000 000000
2016-03-30 01:57:28,0.10,1.34,0.00,11.48,16.69,21.01,15.36,50.05,1021.50,2075.30,3046.63,2836.97,3217.21,600.02,623.15,8.35,0000 0000 0000 0000 000000
2016-03-30 02:02:30,0.14,1.34,0.00,11.48,16.73,20.98,15.43,50.23,1021.50,2075.03,3043.67,2834.84,3214.73,600.02,623.20,8.40,0000 0000 0000 0000 000000
2016-03-30 02:07:31,0.15,1.35,0.00,11.48,16.77,20.97,15.32,50.10,1021.50,2075.00,3040.84,2832.80,3212.32,599.86,622.97,8.45,0000 0000 0000 0000 000000
2016-03-30 02:12:32,0.15,1.36,0.00,11.52,16.81,21.04,15.40,50.09,1021.50,2075.00,3037.97,2830.74,3209.94,599.98,623.12,8.50,0000 0000 0000 0000 000000
2016-03-30 02:17:34,0.15,1.37,0.00,11.59,16.85,21.07,15.37,50.12,1021.50,2074.97,3035.05,2828.70,3207.60,600.01,622.90,8.55,0000 0000 0000 0000 000000
2016-03-30 02:22:35,0.14,1.37,0.00,11.60,16.89,21.11,15.34,50.21,1021.50,2074.84,3032.03,2826.60,3205.26,599.94,622.91,8.61,0000 0000 0000 0000 000000
2016-03-30 02:27:36,0.12,1.38,0.00,11.60,16.93,21.12,15.35,50.18,1021.50,2074.40,3028.97,2824.46,3202.87,599.82,622.62,8.66,0000 0000 0000 0000 000000
2016-03-30 02:32:38,0.13,1.39,0.00,11.66,16.96,21.16,15.29,50.08,1021.50,2074.11,3025.96,2822.36,3200.45,599.70,622.43,8.71,0000 0000 0000 0000 000000
2016-03-30 02:37:39,0.16,1.39,0.00,11.71,17.00,21.17,15.35,50.06,1021.50,2074.01,3022.84,2820.23,3198.16,599.73,622.35,8.76,0000 0000 0000 0000 000000
2016-03-30 02:42:40,0.15,1.40,0.00,11.75,17.04,21.22,15.33,50.08,1021.50,2074.00,3019.81,2818.11,3195.74,599.75,622.29,8.81,0000 0000 0000 0000 000000
2016-03-30 02:47:41,0.15,1.41,0.00,11.77,17.08,21.29,15.37,50.15,1021.50,2074.00,3016.94,2816.06,3193.32,600.41,622.86,8.86,0000 0000 0000 0000 000000
2016-03-30 02:52:42,0.15,1.42,0.00,11.80,17.12,21.29,15.36,50.12,1021.50,2073.99,3013.99,2813.98,3190.91,600.28,622.71,8.91,0000 0000 0000 0000 000000
2016-03-30 02:57:44,0.14,1.43,0.00,11.85,17.16,21.38,15.33,50.18,1021.50,2073.84,3011.16,2811.92,3188.48,600.04,622.38,8.96,0000 0000 0000 0000 000000
2016-03-30 03:02:45,0.09,1.43,0.00,11.86,17.19,21.40,15.34,50.23,1021.50,2073.23,3008.13,2809.79,3186.13,600.17,622.49,9.01,0000 0000 0000 0000 000000
2016-03-30 03:07:46,0.16,1.44,0.00,11.93,17.23,21.41,15.32,50.14,1021.50,2073.06,3005.23,2807.73,3183.74,599.95,622.10,9.06,0000 0000 0000 0000 000000
2016-03-30 03:12:48,0.15,1.45,0.00,11.96,17.26,21.52,15.34,50.23,1021.50,2073.03,3002.25,2805.63,3181.33,600.21,622.30,9.11,0000 0000 0000 0000 000000
2016-03-30 03:17:49,0.16,1.45,0.00,11.99,17.29,21.55,15.34,50.19,1021.50,2073.00,2999.23,2803.46,3178.88,600.08,622.10,9.16,0000 0000 0000 0000 000000
2016-03-30 03:22:50,0.17,1.46,0.00,11.99,17.33,21.53,15.36,50.23,1021.50,2073.00,2996.17,2801.30,3176.36,600.30,622.39,9.21,0000 0000 0000 0000 000000
2016-03-30 03:27:51,0.15,1.47,0.00,12.03,17.36,21.50,15.27,50.19,1021.50,2072.96,2993.18,2799.20,3173.98,599.80,621.77,9.26,0000 0000 0000 0000 000000
2016-03-30 03:32:53,0.15,1.48,0.00,12.07,17.40,21.61,15.35,50.43,1021.50,2072.92,2990.23,2797.10,3171.56,599.93,621.80,9.31,0000 0000 0000 0000 000000
2016-03-30 03:37:54,0.15,1.49,0.00,12.11,17.43,21.62,15.37,50.27,1021.50,2072.83,2987.35,2795.03,3169.21,600.26,622.04,9.36,0000 0000 0000 0000 000000
2016-03-30 03:42:55,0.10,1.49,0.00,12.15,17.47,21.68,15.36,50.11,1021.50,2072.28,2984.35,2792.93,3166.76,600.05,621.80,9.41,0000 0000 0000 0000 000000
2016-03-30 03:47:56,0.15,1.50,0.00,12.23,17.51,21.75,15.29,50.17,1021.50,2072.04,2981.35,2790.78,3164.30,599.91,621.36,9.46,0000 0000 0000 0000 000000
2016-03-30 03:52:58,0.16,1.51,0.00,12.26,17.54,21.78,15.34,50.14,1021.50,2072.00,2978.16,2788.52,3161.71,600.26,621.72,9.51,0000 0000 0000 0000 000000
2016-03-30 03:57:59,0.17,1.52,0.00,12.33,17.58,21.80,15.38,50.15,1021.50,2072.00,2975.00,2786.30,3159.20,600.27,621.56,9.56,0000 0000 0000 0000 000000
2016-03-30 04:03:00,0.17,1.52,0.00,12.40,17.61,21.82,15.28,50.09,1021.50,2071.98,2971.83,2784.14,3156.63,599.89,621.10,9.61,0000 0000 0000 0000 000000
2016-03-30 04:08:01,0.17,1.53,0.00,12.42,17.65,21.94,15.29,50.19,1021.50,2071.94,2968.60,2781.81,3154.07,599.98,621.14,9.66,0000 0000 0000 0000 000000
2016-03-30 04:13:02,0.16,1.54,0.00,12.51,17.68,21.90,15.23,50.08,1021.50,2071.83,2965.41,2779.55,3151.51,599.80,620.67,9.71,0000 0000 0000 0000 000000
2016-03-30 04:18:04,0.12,1.55,0.00,12.54,17.72,21.97,15.28,50.09,1021.50,2071.34,2962.15,2777.25,3148.93,600.03,620.86,9.76,0000 0000 0000 0000 000000
2016-03-30 04:23:05,0.17,1.56,0.00,12.62,17.76,21.98,15.22,50.02,1021.51,2071.03,2958.75,2774.91,3146.17,599.64,620.26,9.81,0000 0000 0000 0000 000000
2016-03-30 04:28:06,0.17,1.56,0.00,12.62,17.80,22.04,15.29,50.11,1021.50,2071.00,2955.53,2772.56,3143.53,599.80,620.32,9.86,0000 0000 0000 0000 000000
2016-03-30 04:33:07,0.19,1.57,0.00,12.66,17.84,22.10,15.27,50.04,1021.50,2071.00,2952.08,2770.19,3140.78,599.90,620.52,9.91,0000 0000 0000 0000 000000
2016-03-30 04:38:09,0.19,1.58,0.00,12.68,17.88,22.09,15.23,49.98,1021.50,2070.98,2948.52,2767.71,3138.00,600.04,620.54,9.96,0000 0000 0000 0000 000000
2016-03-30 04:43:10,0.17,1.59,0.00,12.75,17.91,22.15,15.28,50.05,1021.50,2070.92,2945.11,2765.31,3135.32,599.82,620.19,10.01,0000 0000 0000 0000 000000
2016-03-30 04:48:11,0.12,1.60,0.00,12.74,17.95,22.13,15.24,50.08,1021.51,2070.41,2941.79,2762.93,3132.69,599.96,620.23,10.06,0000 0000 0000 0000 000000
2016-03-30 04:53:12,0.15,1.61,0.00,12.77,18.00,22.19,15.26,50.08,1021.51,2070.07,2938.57,2760.55,3129.98,600.10,620.43,10.11,0000 0000 0000 0000 000000
2016-03-30 04:58:13,0.18,1.62,0.00,12.78,18.04,22.33,15.30,50.19,1021.54,2070.00,2935.26,2758.18,3127.26,600.02,620.34,10.16,0000 0000 0000 0000 000000
2016-03-30 05:03:14,0.18,1.63,0.00,12.79,18.08,22.30,15.36,50.12,1021.58,2070.00,2931.80,2755.75,3124.53,600.50,620.86,10.21,0000 0000 0000 0000 000000
2016-03-30 05:08:16,0.19,1.64,0.00,12.80,18.12,22.35,15.23,50.16,1021.67,2070.00,2928.31,2753.32,3121.75,599.95,620.41,10.26,0000 0000 0000 0000 000000
2016-03-30 05:13:17,0.18,1.64,0.00,12.83,18.16,22.38,15.26,50.11,1021.72,2069.96,2924.94,2751.07,3119.05,599.77,620.10,10.31,0000 0000 0000 0000 000000
2016-03-30 05:18:18,0.14,1.65,0.00,12.83,18.19,22.43,15.30,50.24,1021.65,2069.68,2921.48,2748.71,3116.29,600.18,620.49,10.36,0000 0000 0000 0000 000000
2016-03-30 05:23:20,0.15,1.66,0.00,12.78,18.22,22.45,15.36,50.35,1021.55,2069.20,2918.18,2746.36,3113.50,600.29,620.68,10.41,0000 0000 0000 0000 000000
2016-03-30 05:28:20,0.18,1.67,0.00,12.85,18.25,22.38,15.36,50.28,1021.55,2069.02,2914.67,2743.94,3110.75,600.23,620.29,10.46,0000 0000 0000 0000 000000
2016-03-30 05:33:22,0.19,1.68,0.00,12.91,18.28,22.40,15.32,50.20,1021.54,2069.01,2911.22,2741.52,3108.04,599.98,619.96,10.51,0000 0000 0000 0000 000000
2016-03-30 05:38:23,0.19,1.69,0.00,12.97,18.32,22.48,15.28,50.08,1021.55,2069.00,2907.78,2739.17,3105.33,600.03,620.03,10.56,0000 0000 0000 0000 000000
2016-03-30 05:43:24,0.18,1.70,0.00,12.94,18.35,22.55,15.23,50.16,1021.69,2069.00,2904.47,2736.81,3102.60,599.74,619.85,10.61,0000 0000 0000 0000 000000
2016-03-30 05:48:25,0.19,1.71,0.00,12.98,18.38,22.54,15.27,50.13,1021.85,2068.99,2901.14,2734.47,3099.90,599.99,620.08,10.66,0000 0000 0000 0000 000000
2016-03-30 05:53:27,0.19,1.72,0.00,13.06,18.40,22.55,15.27,50.08,1021.84,2068.96,2897.73,2732.09,3097.19,599.68,619.49,10.71,0000 0000 0000 0000 000000
2016-03-30 05:58:28,0.19,1.73,0.00,13.09,18.43,22.54,15.27,50.15,1021.85,2068.88,2894.21,2729.61,3094.37,599.82,619.66,10.76,0000 0000 0000 0000 000000
2016-03-30 06:03:29,0.15,1.74,0.00,13.08,18.47,22.61,15.24,50.13,1021.97,2068.50,2890.68,2727.17,3091.58,599.57,619.49,10.81,0000 0000 0000 0000 000000
2016-03-30 06:08:30,0.15,1.74,0.00,13.14,18.49,22.68,15.25,50.10,1021.98,2068.15,2887.30,2724.80,3088.88,599.73,619.66,10.86,0000 0000 0000 0000 000000
2016-03-30 06:13:31,0.18,1.75,0.00,13.16,18.52,22.69,15.23,50.10,1021.99,2068.04,2883.97,2722.45,3086.20,599.88,619.61,10.91,0000 0000 0000 0000 000000
2016-03-30 06:18:33,0.18,1.76,0.00,13.41,18.55,22.54,15.26,50.18,1021.99,2068.00,2880.70,2720.13,3083.53,600.12,619.34,10.96,0000 0000 0000 0000 000000
2016-03-30 06:23:34,0.18,1.77,0.00,13.96,18.60,22.40,15.16,50.13,1021.99,2068.00,2877.62,2717.71,3080.83,599.75,617.76,11.02,0000 0000 0000 0000 000000
2016-03-30 06:28:36,0.20,1.78,0.00,14.19,18.66,22.29,15.13,50.09,1021.99,2067.97,2874.22,2715.19,3077.96,600.10,617.60,11.07,0000 0000 0000 0000 000000
2016-03-30 06:33:37,0.17,1.79,0.00,14.38,18.73,22.36,15.10,50.06,1021.99,2067.73,2870.69,2712.63,3075.04,600.10,617.19,11.12,0000 0000 0000 0000 000000
2016-03-30 06:38:38,0.15,1.80,0.00,14.50,18.79,22.44,15.10,49.97,1021.99,2067.13,2867.07,2710.05,3072.14,600.30,617.25,11.17,0000 0000 0000 0000 000000
2016-03-30 06:43:40,0.20,1.81,0.00,14.53,18.85,22.49,15.10,49.84,1021.99,2067.00,2863.56,2707.47,3069.27,599.76,616.59,11.22,0000 0000 0000 0000 000000
2016-03-30 06:48:41,0.21,1.82,0.00,14.45,18.90,22.57,15.14,49.81,1021.99,2066.98,2859.78,2704.89,3066.31,599.83,616.99,11.27,0000 0000 0000 0000 000000
2016-03-30 06:53:42,0.17,1.83,0.00,14.43,18.95,22.65,15.09,49.83,1021.99,2066.76,2856.07,2702.26,3063.36,599.93,616.91,11.32,0000 0000 0000 0000 000000
2016-03-30 06:58:43,0.16,1.84,0.00,14.41,18.99,22.73,15.12,49.81,1022.00,2066.16,2852.34,2699.63,3060.31,600.03,617.10,11.37,0000 0000 0000 0000 000000
2016-03-30 07:03:45,0.21,1.85,0.00,14.34,19.03,22.79,15.10,49.81,1021.99,2066.02,2848.64,2697.02,3057.32,599.88,617.21,11.42,0000 0000 0000 0000 000000
2016-03-30 07:08:46,0.21,1.86,0.00,14.24,19.07,22.86,15.10,49.89,1022.00,2066.00,2844.86,2694.40,3054.41,599.74,617.28,11.47,0000 0000 0000 0000 000000
2016-03-30 07:13:47,0.21,1.87,0.00,14.16,19.11,22.92,15.14,49.92,1021.99,2066.00,2841.01,2691.73,3051.37,599.78,617.39,11.52,0000 0000 0000 0000 000000
2016-03-30 07:18:49,0.22,1.88,0.00,14.07,19.14,23.00,15.14,49.87,1022.00,2065.95,2837.16,2689.03,3048.26,599.70,617.51,11.57,0000 0000 0000 0000 000000
2016-03-30 07:23:50,0.18,1.89,0.00,13.94,19.16,23.08,15.13,49.84,1022.02,2065.68,2833.22,2686.33,3045.18,599.75,617.89,11.62,0000 0000 0000 0000 000000
2016-03-30 07:28:51,0.18,1.90,0.00,13.91,19.17,23.23,15.17,49.82,1022.01,2065.25,2829.29,2683.71,3042.14,599.97,618.15,11.67,0000 0000 0000 0000 000000
2016-03-30 07:33:53,0.21,1.91,0.00,13.87,19.19,23.29,15.24,49.75,1021.99,2065.10,2825.43,2681.13,3039.13,600.13,618.39,11.72,0000 0000 0000 0000 000000
2016-03-30 07:38:54,0.20,1.92,0.00,13.82,19.19,23.23,15.24,49.83,1022.00,2065.05,2821.73,2678.52,3036.18,599.94,618.30,11.77,0000 0000 0000 0000 000000
2016-03-30 07:43:56,0.22,1.93,0.00,13.75,19.18,23.21,15.25,49.88,1022.01,2065.05,2817.95,2675.94,3033.23,600.09,618.64,11.82,0000 0000 0000 0000 000000
2016-03-30 07:48:57,0.21,1.94,0.00,13.77,19.17,23.18,15.22,49.84,1022.02,2065.03,2814.24,2673.38,3030.31,599.68,618.13,11.87,0000 0000 0000 0000 000000
2016-03-30 07:53:58,0.22,1.95,0.00,13.76,19.15,23.16,15.16,49.77,1022.05,2065.08,2810.45,2670.86,3027.41,599.77,618.28,11.92,0000 0000 0000 0000 000000
2016-03-30 07:58:59,0.22,1.96,0.00,13.66,19.13,23.09,15.24,49.83,1022.07,2065.07,2806.53,2668.20,3024.44,599.95,618.69,11.97,0000 0000 0000 0000 000000
2016-03-30 08:04:01,0.22,1.97,0.00,13.61,19.11,23.14,15.19,49.76,1022.06,2065.12,2802.61,2665.54,3021.43,599.97,618.99,12.02,0000 0000 0000 0000 000000
2016-03-30 08:09:02,0.25,1.99,0.00,13.66,19.08,23.11,15.24,49.71,1022.05,2065.26,2798.63,2662.86,3018.39,600.19,618.88,12.07,0000 0000 0000 0000 000000
2016-03-30 08:14:03,0.27,2.00,0.00,13.69,19.05,23.04,15.17,49.71,1022.10,2065.66,2794.63,2660.21,3015.42,599.87,618.56,12.12,0000 0000 0000 0000 000000
2016-03-30 08:19:04,0.23,2.01,0.00,13.63,19.02,23.01,15.22,49.70,1022.07,2065.93,2790.75,2657.60,3012.40,600.01,618.87,12.17,0000 0000 0000 0000 000000
2016-03-30 08:24:06,0.24,2.02,0.00,13.59,18.99,23.10,15.29,49.77,1022.06,2065.94,2786.78,2654.83,3009.29,600.00,618.86,12.22,0000 0000 0000 0000 000000
2016-03-30 08:29:07,0.25,2.04,0.00,13.64,18.97,23.19,15.30,49.70,1022.10,2065.96,2782.60,2651.93,3006.21,600.15,618.91,12.27,0000 0000 0000 0000 000000
2016-03-30 08:34:08,0.25,2.05,0.00,13.74,18.94,23.21,15.31,49.74,1022.15,2065.98,2778.14,2648.93,3002.82,599.93,618.55,12.32,0000 0000 0000 0000 000000
2016-03-30 08:39:09,0.25,2.06,0.00,13.76,18.91,23.16,15.28,49.76,1022.14,2065.99,2773.87,2645.99,2999.49,600.11,618.69,12.37,0000 0000 0000 0000 000000
2016-03-30 08:44:10,0.25,2.07,0.00,13.69,18.89,23.18,15.23,49.70,1022.26,2065.99,2769.60,2643.01,2996.21,600.22,619.19,12.42,0000 0000 0000 0000 000000
2016-03-30 08:49:12,0.26,2.09,0.00,13.79,18.88,23.13,15.24,49.52,1022.39,2065.99,2765.08,2640.02,2992.91,600.01,618.70,12.47,0000 0000 0000 0000 000000
2016-03-30 08:54:12,0.27,2.10,0.00,13.91,18.86,23.09,15.19,49.55,1022.46,2066.00,2760.48,2636.91,2989.40,599.80,618.33,12.52,0000 0000 0000 0000 000000
2016-03-30 08:59:14,0.26,2.11,0.00,13.93,18.84,23.10,15.19,49.47,1022.46,2066.02,2755.99,2633.84,2985.97,599.91,618.32,12.57,0000 0000 0000 0000 000000
2016-03-30 09:04:15,0.26,2.13,0.00,13.82,18.84,23.20,15.22,49.63,1022.46,2066.01,2751.57,2630.75,2982.49,599.77,618.49,12.62,0000 0000 0000 0000 000000
2016-03-30 09:09:17,0.26,2.14,0.00,13.84,18.82,23.28,15.22,49.61,1022.46,2066.01,2747.20,2627.74,2979.07,600.01,618.49,12.67,0000 0000 0000 0000 000000
2016-03-30 09:14:18,0.26,2.15,0.00,13.81,18.82,23.28,15.24,49.54,1022.47,2066.01,2742.76,2624.68,2975.64,599.91,618.56,12.72,0000 0000 0000 0000 000000
2016-03-30 09:19:19,0.26,2.17,0.00,13.77,18.80,23.32,15.19,49.56,1022.44,2066.02,2738.19,2621.76,2972.15,600.08,618.83,12.77,0000 0000 0000 0000 000000
2016-03-30 09:24:20,0.29,2.18,0.00,13.68,18.79,23.12,15.17,49.65,1022.44,2066.19,2733.57,2618.68,2968.67,600.09,619.06,12.82,0000 0000 0000 0000 000000
2016-03-30 09:29:22,0.27,2.20,0.00,13.67,18.77,23.13,15.28,49.62,1022.45,2066.22,2728.88,2615.41,2965.01,600.54,619.37,12.87,0000 0000 0000 0000 000000
2016-03-30 09:34:23,0.31,2.21,0.00,13.67,18.74,23.04,15.24,49.51,1022.41,2066.31,2724.09,2612.12,2961.28,600.18,619.12,12.92,0000 0000 0000 0000 000000
2016-03-30 09:39:25,0.32,2.23,0.00,13.60,18.73,22.94,15.21,49.69,1022.39,2066.54,2719.25,2608.86,2957.60,599.94,619.01,12.97,0000 0000 0000 0000 000000
2016-03-30 09:44:26,0.31,2.25,0.00,13.51,18.70,22.97,15.30,49.61,1022.40,2066.89,2714.42,2605.69,2954.02,600.20,619.43,13.02,0000 0000 0000 0000 000000
2016-03-30 09:49:27,0.30,2.26,0.00,13.48,18.66,22.79,15.36,49.67,1022.29,2066.96,2709.36,2602.32,2950.23,600.43,619.64,13.07,0000 0000 0000 0000 000000
2016-03-30 09:54:28,0.30,2.28,0.00,13.49,18.63,22.74,15.26,49.51,1022.19,2066.98,2704.28,2598.91,2946.34,600.06,619.25,13.12,0000 0000 0000 0000 000000
2016-03-30 09:59:29,0.29,2.29,0.00,13.44,18.60,22.68,15.26,49.54,1022.33,2066.98,2699.19,2595.58,2942.68,600.17,619.53,13.17,0000 0000 0000 0000 000000
2016-03-30 10:04:31,0.28,2.31,0.00,13.35,18.56,22.64,15.23,49.42,1022.41,2066.99,2694.39,2592.41,2939.12,600.00,619.73,13.22,0000 0000 0000 0000 000000
2016-03-30 10:09:32,0.28,2.32,0.00,13.34,18.53,22.63,15.25,49.51,1022.37,2067.00,2689.56,2589.23,2935.62,599.85,619.50,13.28,0000 0000 0000 0000 000000
2016-03-30 10:14:33,0.27,2.33,0.00,13.36,18.49,22.63,15.15,49.34,1022.35,2067.02,2685.01,2586.18,2932.16,599.76,619.33,13.33,0000 0000 0000 0000 000000
2016-03-30 10:19:35,0.22,2.35,0.00,13.29,18.45,22.55,15.25,49.53,1022.29,2067.03,2681.19,2583.59,2929.27,600.00,619.77,13.38,0000 0000 0000 0000 000000
2016-03-30 10:24:36,0.24,2.36,0.00,13.19,18.41,22.58,15.32,49.45,1022.33,2067.12,2677.49,2581.16,2926.45,599.89,619.84,13.43,0000 0000 0000 0000 000000
2016-03-30 10:29:38,0.25,2.37,0.00,13.15,18.37,22.54,15.29,49.49,1022.25,2067.54,2673.98,2578.84,2923.83,600.08,620.08,13.48,0000 0000 0000 0000 000000
2016-03-30 10:34:39,0.26,2.38,0.00,13.15,18.33,22.49,15.20,49.46,1022.13,2067.95,2670.24,2576.37,2921.06,599.81,619.70,13.53,0000 0000 0000 0000 000000
2016-03-30 10:39:40,0.22,2.40,0.00,13.12,18.28,22.43,15.16,49.47,1022.35,2067.98,2666.49,2573.85,2918.26,599.66,619.77,13.58,0000 0000 0000 0000 000000
2016-03-30 10:44:41,0.20,2.41,0.00,13.06,18.24,22.47,15.36,49.58,1022.34,2067.99,2663.11,2571.52,2915.53,599.82,620.10,13.63,0000 0000 0000 0000 000000
2016-03-30 10:49:43,0.23,2.42,0.00,12.99,18.19,22.48,15.23,49.42,1022.33,2067.99,2659.33,2569.13,2912.88,600.00,620.33,13.68,0000 0000 0000 0000 000000
2016-03-30 10:54:44,0.21,2.43,0.00,12.98,18.15,22.30,15.24,49.48,1022.33,2068.04,2655.90,2566.79,2910.18,599.99,620.42,13.73,0000 0000 0000 0000 000000
2016-03-30 10:59:45,0.20,2.44,0.00,12.96,18.10,22.22,15.23,49.42,1022.28,2068.20,2652.82,2564.67,2907.76,599.75,620.21,13.78,0000 0000 0000 0000 000000
2016-03-30 11:04:46,0.29,2.45,0.00,12.90,18.06,22.35,15.31,49.52,1022.28,2068.73,2649.20,2562.31,2905.06,600.30,620.90,13.83,0000 0000 0000 0000 000000
2016-03-30 11:09:47,0.24,2.47,0.00,12.82,18.01,22.33,15.26,49.48,1022.28,2068.95,2645.36,2559.77,2902.17,599.97,620.71,13.88,0000 0000 0000 0000 000000
2016-03-30 11:14:49,0.21,2.48,0.00,12.81,17.96,22.26,15.17,49.48,1022.17,2068.98,2641.62,2557.52,2899.46,599.94,620.65,13.93,0000 0000 0000 0000 000000
2016-03-30 11:19:50,0.22,2.49,0.00,12.79,17.92,22.17,15.29,49.54,1022.12,2068.99,2638.11,2555.22,2896.86,600.18,620.84,13.98,0000 0000 0000 0000 000000
2016-03-30 11:24:52,0.21,2.50,0.00,12.76,17.88,22.07,15.38,49.58,1022.19,2069.01,2634.68,2552.97,2894.28,600.36,621.12,14.03,0000 0000 0000 0000 000000
2016-03-30 11:29:53,0.20,2.51,0.00,12.67,17.83,22.01,15.30,49.51,1022.16,2069.07,2631.49,2550.74,2891.74,599.99,620.93,14.08,0000 0000 0000 0000 000000
2016-03-30 11:34:54,0.24,2.52,0.00,12.62,17.78,22.07,15.17,49.52,1022.08,2069.47,2628.42,2548.57,2889.25,599.61,620.60,14.13,0000 0000 0000 0000 000000
2016-03-30 11:39:56,0.24,2.53,0.00,12.62,17.74,21.92,15.27,49.46,1022.01,2069.88,2624.91,2546.35,2886.76,600.27,621.15,14.18,0000 0000 0000 0000 000000
2016-03-30 11:44:57,0.21,2.54,0.00,12.60,17.70,21.93,15.26,49.57,1022.03,2069.97,2621.73,2544.17,2884.27,599.96,620.99,14.23,0000 0000 0000 0000 000000
2016-03-30 11:49:58,0.23,2.56,0.00,12.52,17.65,21.89,15.33,49.63,1022.01,2069.99,2617.93,2541.69,2881.54,600.06,621.23,14.28,0000 0000 0000 0000 000000
2016-03-30 11:54:59,0.20,2.57,0.00,12.47,17.60,21.90,15.32,49.54,1022.01,2069.99,2614.61,2539.38,2878.94,599.91,621.20,14.33,0000 0000 0000 0000 000000
2016-03-30 12:00:00,0.23,2.58,0.00,12.45,17.56,21.77,15.27,49.58,1022.00,2070.02,2610.97,2536.94,2876.26,599.79,621.11,14.38,0000 0000 0000 0000 000000
2016-03-30 12:05:02,0.23,2.59,0.00,12.42,17.52,21.74,15.25,49.48,1022.00,2070.20,2607.65,2534.72,2873.71,599.97,621.34,14.43,0000 0000 0000 0000 000000
2016-03-30 12:10:03,0.25,2.60,0.00,12.39,17.48,21.74,15.40,49.57,1022.00,2070.52,2604.16,2532.42,2871.18,599.98,621.46,14.48,0000 0000 0000 0000 000000
2016-03-30 12:15:04,0.24,2.61,0.00,12.35,17.43,21.77,15.33,49.59,1022.00,2070.88,2600.60,2530.11,2868.57,599.87,621.35,14.53,0000 0000 0000 0000 000000
2016-03-30 12:20:06,0.21,2.63,0.00,12.28,17.39,21.70,15.39,49.63,1022.01,2070.98,2597.16,2527.97,2866.04,600.33,621.99,14.58,0000 0000 0000 0000 000000
2016-03-30 12:25:07,0.20,2.64,0.00,12.24,17.34,21.56,15.39,49.62,1022.02,2070.99,2593.92,2525.72,2863.60,600.17,622.01,14.63,0000 0000 0000 0000 000000
2016-03-30 12:30:08,0.22,2.65,0.00,12.24,17.30,21.48,15.26,49.60,1022.00,2071.01,2590.38,2523.39,2860.98,600.00,621.82,14.68,0000 0000 0000 0000 000000
2016-03-30 12:35:10,0.23,2.66,0.00,12.21,17.26,21.45,15.41,49.67,1022.00,2071.09,2586.61,2521.09,2858.35,600.31,622.18,14.73,0000 0000 0000 0000 000000
2016-03-30 12:40:11,0.25,2.67,0.00,12.17,17.22,21.37,15.31,49.65,1022.00,2071.23,2582.89,2518.64,2855.68,599.92,621.88,14.78,0000 0000 0000 0000 000000
2016-03-30 12:45:13,0.27,2.68,0.00,12.11,17.18,21.44,15.35,49.62,1022.00,2071.77,2579.59,2516.39,2853.08,600.09,622.15,14.83,0000 0000 0000 0000 000000
2016-03-30 12:50:14,0.23,2.70,0.00,12.05,17.13,21.43,15.31,49.73,1021.99,2071.94,2576.00,2514.12,2850.52,599.85,622.02,14.88,0000 0000 0000 0000 000000
2016-03-30 12:55:16,0.22,2.71,0.00,12.04,17.09,21.40,15.33,49.74,1021.99,2071.99,2572.39,2511.92,2848.01,600.13,622.34,14.93,0000 0000 0000 0000 000000